Location: Potawatomi Wildlife Park
(41.2308°N, 86.1050°W)
Time: 23:34:28
(UTC-05:00)

Daily predictions for brighter satellites

Satellite Brightness Start Highest point End
(mag) Time Altitude Azimuth Time Altitude Azimuth Time Altitude Azimuth
Cosmos 1190 Rocket 4.0 18:48:24 10° SSW 18:53:35 85° ESE 18:58:48 10° NNE
Thor Agena Rocket 4.1 18:50:12 10° N 18:55:13 64° WNW 19:00:10 10° SSW
COSMO-SKYMED 1 2.6 18:51:34 10° NNE 18:55:56 87° E 19:00:17 10° SSW
Cosmos 2181 Rocket 4.5 18:52:13 10° N 18:58:01 38° ENE 19:03:51 10° SE
ALOS 3.3 18:54:12 10° ESE 18:58:02 26° ENE 19:01:54 10° NNE
Cosmos 2333 Rocket 4.1 18:59:15 10° NNE 19:01:09 11° NE 19:03:02 10° ENE
SL-16 R/B 2.5 18:57:57 10° NNW 19:03:38 75° WSW 19:09:16 10° SSE
Okean 2 Rocket 4.0 19:01:00 10° SSW 19:05:21 53° W 19:09:42 10° N
FREGAT/IRIS 3.3 19:02:42 10° SE 19:05:32 33° ENE 19:08:22 10° N
Cosmos 1340 3.1 19:02:54 10° N 19:06:30 39° ENE 19:10:04 10° SSE
Cosmos 1709 Rocket 4.0 19:06:54 10° S 19:13:00 61° E 19:19:04 10° NNE
Helios 1B rocket 4.1 19:18:13 13° E 19:18:24 13° E 19:20:27 10° ESE
Cosmos 2322 Rocket 3.1 19:14:33 10° NNW 19:20:00 53° WSW 19:25:26 10° S
Meteor 1-28 Rocket 3.9 19:16:28 10° N 19:20:14 57° WNW 19:23:58 10° SSW
Cosmos 1954 Rocket 3.9 19:15:10 10° S 19:20:19 70° ESE 19:25:32 10° NNE
HJ-1C 4.0 19:19:34 10° SE 19:22:41 35° ENE 19:25:48 10° N
Tiangong 2 2.7 19:20:35 10° W 19:23:19 29° SSW 19:26:02 10° SE
SJ-6B 2.8 19:20:02 10° SSE 19:24:00 66° ENE 19:27:55 10° N
Cosmos 2151 Rocket 3.9 19:19:58 10° SSW 19:24:28 72° W 19:29:00 10° N
Okean 1 Rocket 3.5 19:21:14 10° SSE 19:25:26 41° E 19:29:39 10° NNE
Genesis I 4.1 19:22:17 10° NNW 19:25:48 30° NE 19:28:05 17° E
FENGYUN 3A 3.8 19:22:39 10° SE 19:27:52 52° ENE 19:33:07 10° N
TSX-5 3.4 19:24:56 10° SSW 19:28:05 73° WNW 19:31:20 10° NNE
Meteor 1-19 Rocket 4.3 19:22:46 10° N 19:28:24 59° ENE 19:34:04 10° SSE
Gbstr 26 Del rocket 2.7 19:30:42 10° SW 19:34:29 61° SE 19:36:53 20° ENE
Cosmos 2322 3.7 19:30:39 10° NNW 19:36:24 72° ENE 19:42:04 10° SSE
Cosmos 1238 Rocket 1.9 19:34:41 10° N 19:37:41 78° E 19:40:38 10° S
GPS 2-04 Rocket1 4.3 19:41:21 10° SW 19:44:53 25° SSE 19:46:29 20° SE
Cosmos 1025 Rocket 3.5 19:41:09 10° N 19:45:15 37° ENE 19:48:41 14° SE
CZ-2D R/B 3.8 19:43:32 22° ESE 19:45:19 34° ENE 19:48:49 10° N
Meteor 1-13 Rocket 4.2 19:39:51 10° N 19:45:26 87° W 19:51:05 10° S
GEOS 3 Rocket 3.6 19:40:30 10° NE 19:45:43 62° ESE 19:50:56 10° SSW
H-2A R/B 2.7 19:46:56 10° SSE 19:50:33 54° ENE 19:54:13 10° N
Cosmos 1536 2.7 19:47:06 10° S 19:51:03 64° E 19:55:00 10° NNE
Okean 1-7 Rocket 3.6 19:47:01 10° N 19:51:32 60° E 19:55:57 10° SSE
COSMOS 2428 2.9 19:46:10 10° NNW 19:51:42 50° ENE 19:55:38 19° SE
Cosmos 2237 4.2 19:46:18 10° NNW 19:52:01 64° ENE 19:57:28 11° SE
Meteor 1-23 Rocket 4.3 19:46:25 10° N 19:52:08 55° ENE 19:57:45 10° SSE
SL-19 R/B 4.3 19:47:31 10° SSE 19:53:09 75° ENE 19:59:10 10° NNW
Meteor 2-4 Rocket 3.5 19:48:57 10° N 19:54:30 70° E 19:59:53 10° SSE
Cosmos 2237 Rocket 3.5 19:51:16 10° N 19:55:28 21° NE 19:55:53 20° ENE
Cosmos 1633 3.5 19:51:56 10° SSW 19:55:30 50° W 19:59:07 10° N
SL-08 ROCKET BODY 4.4 19:52:03 10° S 19:58:08 67° E 20:04:18 10° NNE
Cosmos 1741 Rocket 3.9 19:58:36 10° SSW 20:03:49 79° ESE 20:09:03 10° NNE
Cosmos 2360 Rocket 2.9 20:05:20 10° NNW 20:10:50 53° WSW 20:16:18 10° S
Cosmos 2219 3.1 20:06:27 10° SSW 20:12:11 77° ESE 20:17:57 10° NNE
Cosmos 2219 Rocket 2.5 20:07:24 10° N 20:12:42 42° ENE 20:13:35 39° E
Cosmos 1570 Rocket 4.1 20:14:15 10° NNW 20:19:29 77° WSW 20:24:15 12° SSE
BREEZE-M DEB (TANK) 3.1 20:21:05 10° WSW 20:23:46 44° WSW 20:23:46 44° WSW
Resurs 01 Rocket 2.5 20:22:01 10° S 20:26:17 49° W 20:30:35 10° NNW
SL-16 R/B 4.0 20:25:11 10° N 20:27:20 16° NNE 20:27:20 16° NNE
Abrixas rocket 3.8 20:27:43 10° SW 20:29:39 31° SW 20:29:39 31° SW
Spot 1 4.0 20:31:45 60° SSW 20:32:24 76° WSW 20:36:33 10° NNW
BREEZE-M DEB (TANK) 3.7 20:29:08 10° WNW 20:32:41 81° NNE 20:35:01 44° ESE
ATLAS CENTAUR R/B 3.7 20:29:06 10° SSW 20:30:46 19° SSW 20:30:46 19° SSW
Cosmos 1610 Rocket 4.3 20:26:40 10° S 20:32:53 76° E 20:39:04 10° N
ALOS 4.0 20:31:10 10° SSW 20:35:20 32° W 20:39:32 10° NNW
Cosmos 468 Rocket 4.1 20:34:50 10° NNW 20:39:26 57° NE 20:39:26 57° NE
Helios 1A 3.3 20:40:55 57° SW 20:41:24 63° WSW 20:45:32 10° NNW
Cosmos 2333 Rocket 2.3 20:40:53 10° NNW 20:46:14 62° NE 20:46:14 62° NE
USA 229 DEB 3.7 20:45:15 10° NW 20:52:25 84° WSW 20:54:32 51° SSE
USA 229 3.7 20:45:21 10° NW 20:52:31 84° WSW 20:54:36 51° SSE
Helios 1B rocket 3.4 20:49:58 10° N 20:54:33 46° W 20:57:59 10° SSW
Cosmos 1980 4.2 20:48:47 10° NNW 20:53:09 48° NNE 20:53:09 48° NNE
Envisat 3.4 20:58:42 53° N 20:58:42 53° N 21:02:35 10° NNW
NOSS 3-1 (A) 4.3 20:57:49 10° NNW 21:04:58 49° NE 21:04:58 49° NE
ATLAS 2AS CENTAUR R/B 4.4 21:03:55 10° NNW 21:10:09 23° NNE 21:10:18 23° NNE
BREEZE-M DEB (TANK) 4.1 21:14:46 10° WNW 21:17:19 39° WSW 21:17:19 39° WSW
Nadezhda 3 Rocket 4.2 21:15:06 10° NNW 21:21:11 64° W 21:21:26 63° WSW
NOSS 3-1 (C) 4.0 21:17:12 10° NNW 21:24:22 74° NNE 21:24:22 74° NNE
Cosmos 2237 Rocket 3.5 21:34:23 10° NNW 21:37:45 36° NW 21:37:45 36° NW
Cosmos 2219 Rocket 4.0 21:51:46 10° NW 21:55:22 26° W 21:55:22 26° W
